When you browse on this site, cookies collect data to enhance your experience and personalize the content and advertising you see.
Visit our Privacy Policy to learn more. By continuing to use the site, you agree to this use of cookies and data.
  • In Hungary
  • List of Countries
  • For 7 days
  • Water Temperature
  • Weather Map
  • News
  • Weather Widgets
  • user-avatar
    Login

    Hourly Weather Archib

    Today, 14 October, Monday

    Time Temperature Precipitation Wind Pressure Humidity
    00:00 +7°C° 0 mm 1 mps 599 mmHg 42%
    01:00 +7°C° 0 mm 1 mps 599 mmHg 41%
    02:00 +7°C° 0 mm 1 mps 599 mmHg 40%
    03:00 +7°C° 0 mm 1 mps 599 mmHg 38%
    04:00 +7°C° 0 mm 1 mps 599 mmHg 38%
    05:00 +7°C° 0 mm 1 mps 599 mmHg 38%
    06:00 +6°C° 0 mm 1 mps 599 mmHg 37%
    07:00 +9°C° 0 mm 1 mps 600 mmHg 34%
    08:00 +11°C° 0 mm 0 mps 601 mmHg 31%
    09:00 +13°C° 0 mm 0 mps 603 mmHg 27%
    10:00 +15°C° 0 mm 1 mps 603 mmHg 28%
    11:00 +16°C° 0 mm 1 mps 603 mmHg 29%
    12:00 +16°C° 0 mm 1 mps 603 mmHg 30%
    13:00 +16°C° 0 mm 1 mps 603 mmHg 32%
    14:00 +16°C° 0 mm 1 mps 603 mmHg 35%
    15:00 +16°C° 0 mm 1 mps 602 mmHg 37%
    16:00 +14°C° 0 mm 1 mps 601 mmHg 46%
    17:00 +11°C° 0 mm 1 mps 600 mmHg 55%
    18:00 +9°C° 0 mm 1 mps 599 mmHg 64%
    19:00 +9°C° 0 mm 1 mps 599 mmHg 60%
    20:00 +9°C° 0 mm 1 mps 599 mmHg 56%
    21:00 +8°C° 0 mm 2 mps 599 mmHg 52%
    22:00 +8°C° 0 mm 2 mps 599 mmHg 46%
    23:00 +7°C° 0 mm 2 mps 599 mmHg 41%

    Tomorrow, 15 October, Tuesday

    Time Temperature Precipitation Wind Pressure Humidity
    00:00 +7°C° 0 mm 2 mps 599 mmHg 35%
    01:00 +7°C° 0 mm 2 mps 598 mmHg 34%
    02:00 +7°C° 0 mm 2 mps 598 mmHg 32%
    03:00 +7°C° 0 mm 3 mps 598 mmHg 30%
    04:00 +7°C° 0 mm 3 mps 598 mmHg 30%
    05:00 +7°C° 0 mm 3 mps 597 mmHg 29%
    06:00 +7°C° 0 mm 3 mps 597 mmHg 28%
    07:00 +9°C° 0 mm 2 mps 598 mmHg 27%
    08:00 +13°C° 0 mm 2 mps 600 mmHg 25%
    09:00 +15°C° 0 mm 1 mps 601 mmHg 24%
    10:00 +16°C° 0 mm 1 mps 601 mmHg 24%
    11:00 +17°C° 0 mm 2 mps 601 mmHg 24%
    12:00 +17°C° 0 mm 2 mps 601 mmHg 24%
    13:00 +17°C° 0 mm 2 mps 600 mmHg 26%
    14:00 +18°C° 0 mm 1 mps 600 mmHg 28%
    15:00 +18°C° 0 mm 1 mps 599 mmHg 30%
    16:00 +14°C° 0 mm 1 mps 598 mmHg 37%
    17:00 +12°C° 0 mm 1 mps 597 mmHg 45%
    18:00 +10°C° 0 mm 1 mps 596 mmHg 52%
    19:00 +9°C° 0 mm 1 mps 596 mmHg 52%
    20:00 +9°C° 0 mm 1 mps 596 mmHg 51%
    21:00 +9°C° 0 mm 1 mps 596 mmHg 51%
    22:00 +9°C° 0 mm 1 mps 596 mmHg 50%
    23:00 +9°C° 0 mm 1 mps 596 mmHg 49%

    Day after tomorrow, 16 October, Wednesday

    Time Temperature Precipitation Wind Pressure Humidity
    00:00 +8°C° 0 mm 1 mps 595 mmHg 48%
    01:00 +8°C° 0 mm 1 mps 595 mmHg 48%
    02:00 +8°C° 0 mm 1 mps 595 mmHg 47%
    03:00 +8°C° 0 mm 1 mps 595 mmHg 47%
    04:00 +8°C° 0 mm 1 mps 595 mmHg 46%
    05:00 +8°C° 0 mm 1 mps 595 mmHg 46%
    06:00 +7°C° 0 mm 1 mps 595 mmHg 45%
    07:00 +10°C° 0 mm 1 mps 596 mmHg 40%
    08:00 +12°C° 0 mm 1 mps 598 mmHg 34%
    09:00 +14°C° 0 mm 1 mps 599 mmHg 29%
    10:00 +15°C° 0 mm 1 mps 599 mmHg 29%
    11:00 +16°C° 0 mm 1 mps 599 mmHg 30%
    12:00 +16°C° 0 mm 2 mps 599 mmHg 30%
    13:00 +16°C° 0 mm 2 mps 599 mmHg 32%
    14:00 +16°C° 0 mm 2 mps 599 mmHg 35%
    15:00 +15°C° 0 mm 2 mps 598 mmHg 37%
    16:00 +13°C° 0 mm 1 mps 597 mmHg 46%
    17:00 +11°C° 0 mm 1 mps 597 mmHg 55%
    18:00 +8°C° 0 mm 0 mps 596 mmHg 64%
    19:00 +8°C° 0 mm 0 mps 596 mmHg 63%
    20:00 +8°C° 0 mm 1 mps 596 mmHg 62%
    21:00 +8°C° 0 mm 1 mps 596 mmHg 62%
    22:00 +8°C° 0 mm 1 mps 596 mmHg 57%
    23:00 +8°C° 0 mm 1 mps 596 mmHg 53%

    17 October, Thursday

    Time Temperature Precipitation Wind Pressure Humidity
    00:00 +7°C° 0 mm 1 mps 596 mmHg 49%
    01:00 +6°C° 0 mm 2 mps 596 mmHg 45%
    02:00 +6°C° 0 mm 2 mps 596 mmHg 41%
    03:00 +6°C° 0 mm 2 mps 596 mmHg 37%
    04:00 +6°C° 0 mm 2 mps 596 mmHg 36%
    05:00 +6°C° 0 mm 2 mps 596 mmHg 35%
    06:00 +6°C° 0 mm 2 mps 596 mmHg 35%
    07:00 +8°C° 0 mm 2 mps 597 mmHg 33%
    08:00 +10°C° 0 mm 2 mps 598 mmHg 31%
    09:00 +14°C° 0 mm 1 mps 599 mmHg 29%
    10:00 +14°C° 0 mm 2 mps 599 mmHg 30%
    11:00 +15°C° 0 mm 2 mps 600 mmHg 31%
    12:00 +16°C° 0 mm 2 mps 600 mmHg 32%
    13:00 +16°C° 0 mm 2 mps 599 mmHg 34%
    14:00 +15°C° 0 mm 2 mps 599 mmHg 37%
    15:00 +15°C° 0 mm 2 mps 599 mmHg 39%
    16:00 +13°C° 0 mm 2 mps 598 mmHg 48%
    17:00 +10°C° 0 mm 2 mps 596 mmHg 56%
    18:00 +8°C° 0 mm 2 mps 595 mmHg 64%
    19:00 +8°C° 0 mm 2 mps 595 mmHg 59%
    20:00 +7°C° 0 mm 2 mps 595 mmHg 54%
    21:00 +7°C° 0 mm 2 mps 595 mmHg 49%
    22:00 +7°C° 0 mm 2 mps 595 mmHg 48%
    23:00 +7°C° 0 mm 2 mps 595 mmHg 48%

    18 October, Friday

    Time Temperature Precipitation Wind Pressure Humidity
    00:00 +7°C° 0 mm 2 mps 595 mmHg 47%
    01:00 +7°C° 0 mm 2 mps 594 mmHg 49%
    02:00 +7°C° 0 mm 2 mps 594 mmHg 50%
    03:00 +7°C° 0 mm 2 mps 594 mmHg 52%
    04:00 +7°C° 0 mm 2 mps 594 mmHg 55%
    05:00 +7°C° 0 mm 2 mps 594 mmHg 57%
    06:00 +7°C° 0 mm 2 mps 594 mmHg 60%
    07:00 +10°C° 0 mm 1 mps 595 mmHg 53%
    08:00 +12°C° 0 mm 1 mps 596 mmHg 47%
    09:00 +14°C° 0 mm 1 mps 597 mmHg 40%
    10:00 +15°C° 0 mm 1 mps 597 mmHg 38%
    11:00 +16°C° 0 mm 1 mps 597 mmHg 36%
    12:00 +16°C° 0 mm 2 mps 597 mmHg 34%
    13:00 +16°C° 0 mm 2 mps 597 mmHg 37%
    14:00 +16°C° 0 mm 2 mps 597 mmHg 40%
    15:00 +16°C° 0 mm 2 mps 596 mmHg 43%
    16:00 +13°C° 0 mm 1 mps 595 mmHg 51%
    17:00 +11°C° 0 mm 1 mps 594 mmHg 59%
    18:00 +8°C° 0 mm 0 mps 594 mmHg 68%
    19:00 +8°C° 0 mm 0 mps 594 mmHg 68%
    20:00 +9°C° 0 mm 1 mps 594 mmHg 67%
    21:00 +9°C° 0 mm 1 mps 594 mmHg 67%
    22:00 +8°C° 0 mm 1 mps 594 mmHg 67%
    23:00 +8°C° 0 mm 1 mps 594 mmHg 67%

    19 October, Saturday

    Time Temperature Precipitation Wind Pressure Humidity
    00:00 +8°C° 0 mm 1 mps 594 mmHg 67%
    01:00 +8°C° 0 mm 1 mps 594 mmHg 68%
    02:00 +8°C° 0 mm 1 mps 594 mmHg 68%
    03:00 +8°C° 0 mm 1 mps 594 mmHg 68%
    04:00 +8°C° 0 mm 1 mps 594 mmHg 68%
    05:00 +8°C° 0 mm 1 mps 595 mmHg 67%
    06:00 +8°C° 0 mm 1 mps 595 mmHg 66%
    07:00 +9°C° 0.2 mm 1 mps 596 mmHg 69%
    08:00 +9°C° 0.2 mm 1 mps 596 mmHg 72%
    09:00 +10°C° 0.2 mm 1 mps 597 mmHg 76%
    10:00 +10°C° 1 mm 1 mps 597 mmHg 78%
    11:00 +10°C° 1 mm 1 mps 597 mmHg 80%
    12:00 +10°C° 1 mm 1 mps 597 mmHg 82%
    13:00 +10°C° 0.3 mm 1 mps 597 mmHg 82%
    14:00 +10°C° 0.3 mm 1 mps 597 mmHg 82%
    15:00 +10°C° 0.3 mm 1 mps 597 mmHg 82%
    16:00 +10°C° 0.1 mm 1 mps 596 mmHg 84%
    17:00 +9°C° 0.1 mm 1 mps 596 mmHg 87%
    18:00 +8°C° 0.1 mm 1 mps 596 mmHg 90%
    19:00 +8°C° 0 mm 1 mps 596 mmHg 90%
    20:00 +7°C° 0 mm 2 mps 596 mmHg 90%
    21:00 +7°C° 0 mm 2 mps 597 mmHg 90%
    22:00 +7°C° 0.2 mm 2 mps 597 mmHg 91%
    23:00 +7°C° 0.2 mm 2 mps 597 mmHg 91%
    Show more